LU8AQL-WX Weather Reports


Display with metric or nautical units.
time (UTC)temp
F
wind
direction
speed
MPH
gust
MPH
rain 1hr
in
rain 24hr
in
rain mn
in
humidity
%
barometer
mb
20260508135040 50 260 10.0 23.0 0.00 0.00 0.00 68 1005.0
20260508134039 49 260 10.0 23.0 0.00 0.00 0.00 70 1005.0
20260508133038 49 260 10.0 23.0 0.00 0.00 0.00 70 1005.0
20260508132037 49 260 10.0 23.0 0.00 0.00 0.00 70 1005.0
20260508131036 48 260 8.0 0.0 0.00 0.00 0.00 74 1005.0
20260508130035 48 260 8.0 0.0 0.00 0.00 0.00 74 1005.0
20260508125034 48 260 8.0 0.0 0.00 0.00 0.00 74 1005.0
20260508124033 47 260 8.0 0.0 0.00 0.00 0.00 76 1004.0
20260508123032 47 260 8.0 0.0 0.00 0.00 0.00 76 1004.0
20260508122032 47 260 8.0 0.0 0.00 0.00 0.00 77 1004.0
20260508121030 47 260 8.0 0.0 0.00 0.00 0.00 77 1004.0
20260508120030 47 260 9.0 0.0 0.00 0.00 0.00 78 1004.0
20260508115028 47 260 9.0 0.0 0.00 0.00 0.00 78 1004.0
20260508114027 47 260 9.0 0.0 0.00 0.00 0.00 79 1004.0
20260508113026 47 260 9.0 0.0 0.00 0.00 0.00 78 1004.0
20260508112025 47 260 9.0 0.0 0.00 0.00 0.00 77 1003.0
20260508111024 47 260 9.0 0.0 0.00 0.00 0.00 77 1003.0
20260508110023 47 260 9.0 20.0 0.00 0.00 0.00 76 1003.0
20260508105022 47 260 9.0 20.0 0.00 0.00 0.00 76 1003.0
20260508104022 47 260 9.0 20.0 0.00 0.00 0.00 77 1003.0
20260508103021 47 260 9.0 20.0 0.00 0.00 0.00 76 1003.0
20260508102020 47 260 9.0 20.0 0.00 0.00 0.00 76 1002.0
20260508101019 47 260 9.0 20.0 0.00 0.00 0.00 75 1002.0
20260508100018 47 260 10.0 21.0 0.00 0.00 0.00 77 1002.0
20260508095016 47 260 10.0 21.0 0.00 0.00 0.00 78 1002.0
20260508094015 47 260 10.0 21.0 0.00 0.00 0.00 79 1002.0
20260508093015 47 260 10.0 21.0 0.00 0.00 0.00 78 1001.0
20260508092014 47 260 10.0 21.0 0.00 0.00 0.00 76 1001.0
20260508091013 47 260 10.0 21.0 0.00 0.00 0.00 77 1001.0
20260508090012 47 260 9.0 0.0 0.00 0.00 0.00 77 1001.0
20260508085011 47 260 9.0 0.0 0.00 0.00 0.00 77 1001.0
20260508084010 47 260 9.0 0.0 0.00 0.00 0.00 78 1001.0
20260508083009 47 260 9.0 0.0 0.00 0.00 0.00 78 1001.0
20260508082008 48 260 9.0 0.0 0.00 0.00 0.00 78 1001.0
20260508081007 48 260 9.0 0.0 0.00 0.00 0.00 79 1001.0
20260508080006 48 240 11.0 26.0 0.00 0.00 0.00 80 1001.0
20260508075005 48 240 11.0 26.0 0.00 0.00 0.00 81 1001.0
20260508074004 48 240 11.0 26.0 0.00 0.00 0.00 82 1001.0
20260508073003 48 240 11.0 26.0 0.00 0.00 0.00 83 1001.0
20260508072002 48 240 11.0 26.0 0.00 0.00 0.00 83 1001.0
20260508071002 48 240 11.0 26.0 0.00 0.00 0.00 82 1001.0
20260508070001 49 250 10.0 0.0 0.00 0.00 0.00 81 1001.0
20260508065000 49 250 10.0 0.0 0.00 0.00 0.00 80 1001.0
20260508063959 49 250 10.0 0.0 0.00 0.00 0.00 79 1001.0
20260508062958 49 250 10.0 0.0 0.00 0.00 0.00 78 1001.0
20260508061957 49 250 10.0 0.0 0.00 0.00 0.00 78 1001.0
20260508060956 49 250 10.0 0.0 0.00 0.00 0.00 78 1002.0
20260508055955 49 240 11.0 0.0 0.00 0.00 0.00 80 1002.0
20260508054954 49 240 11.0 0.0 0.00 0.00 0.00 79 1002.0
20260508053953 49 240 11.0 0.0 0.00 0.00 0.00 79 1002.0
20260508052952 49 240 11.0 0.0 0.00 0.00 0.00 81 1002.0
20260508051951 49 240 11.0 0.0 0.00 0.00 0.00 83 1002.0
20260508050951 49 240 11.0 0.0 0.00 0.00 0.00 83 1002.0
20260508045950 50 230 10.0 25.0 0.00 0.00 0.00 83 1002.0
20260508044949 49 230 10.0 25.0 0.00 0.00 0.00 85 1002.0
20260508043948 49 230 10.0 25.0 0.00 0.00 0.00 86 1002.0
20260508042947 49 230 10.0 25.0 0.00 0.00 0.00 88 1001.0
20260508041946 49 230 10.0 25.0 0.00 0.00 0.00 89 1001.0
20260508040945 50 230 10.0 25.0 0.00 0.00 0.00 88 1001.0
20260508035944 51 250 11.0 25.0 0.00 0.00 0.00 89 1001.0
20260508034943 50 250 11.0 25.0 0.00 0.00 0.00 90 1001.0
20260508033942 50 250 11.0 25.0 0.00 0.00 0.00 91 1001.0
20260508032941 50 250 9.0 0.0 0.00 0.00 0.00 90 1001.0
20260508031940 50 250 9.0 0.0 0.00 0.00 0.00 90 1001.0
20260508030939 50 250 9.0 0.0 0.00 0.00 0.00 91 1001.0
20260508025938 50 0 9.0 0.0 0.00 0.00 0.00 90 1001.0
20260508024937 50 0 9.0 0.0 0.00 0.00 0.00 90 1001.0
20260508023937 51 0 9.0 0.0 0.00 0.00 0.00 89 1001.0
20260508022935 51 0 9.0 0.0 0.00 0.00 0.00 89 1001.0
20260508021935 51 0 9.0 0.0 0.00 0.00 0.00 89 1001.0
20260508020934 51 0 9.0 0.0 0.00 0.00 0.00 89 1001.0
20260508015932 52 260 9.0 20.0 0.00 0.00 0.00 90 1001.0
20260508014931 52 260 9.0 20.0 0.00 0.00 0.00 90 1001.0
20260508013930 52 260 9.0 20.0 0.00 0.00 0.00 89 1001.0
20260508012929 52 260 9.0 20.0 0.00 0.00 0.00 89 1001.0
20260508011928 52 260 10.0 23.0 0.00 0.00 0.00 89 1001.0
20260508010927 52 260 10.0 23.0 0.00 0.00 0.00 89 1001.0
20260508005926 53 260 8.0 0.0 0.00 0.00 0.00 86 1001.0
20260508004925 54 260 8.0 0.0 0.00 0.00 0.00 83 1001.0
20260508003924 54 260 8.0 0.0 0.00 0.00 0.00 83 1001.0
20260508002923 54 260 8.0 0.0 0.00 0.00 0.00 81 1001.0
20260508001922 54 260 8.0 0.0 0.00 0.00 0.00 81 1002.0
20260508000921 54 260 8.0 0.0 0.00 0.00 0.00 80 1002.0
20260507235920 54 270 10.0 0.0 0.00 0.00 0.00 81 1002.0
20260507234919 54 270 10.0 0.0 0.00 0.00 0.00 82 1002.0
20260507233918 54 270 10.0 0.0 0.00 0.00 0.00 83 1002.0
20260507232917 54 270 10.0 0.0 0.00 0.00 0.00 83 1001.0
20260507231916 54 270 10.0 0.0 0.00 0.00 0.00 83 1001.0
20260507230914 54 270 10.0 0.0 0.00 0.00 0.00 84 1001.0
20260507225913 55 270 10.0 0.0 0.00 0.00 0.00 83 1001.0
20260507224912 55 270 10.0 0.0 0.00 0.00 0.00 82 1001.0
20260507223911 55 270 10.0 0.0 0.00 0.00 0.00 80 1001.0
20260507222910 55 270 10.0 0.0 0.00 0.00 0.00 79 1000.0
20260507221909 56 270 10.0 0.0 0.00 0.00 0.00 77 1000.0
20260507220908 56 270 10.0 0.0 0.00 0.00 0.00 77 1000.0
20260507215907 56 270 10.0 0.0 0.00 0.00 0.00 75 1000.0
20260507214907 57 270 10.0 0.0 0.00 0.00 0.00 74 1000.0
20260507213906 57 270 10.0 0.0 0.00 0.00 0.00 74 1000.0
20260507212905 57 270 10.0 0.0 0.00 0.00 0.00 74 999.0
20260507211903 57 270 10.0 0.0 0.00 0.00 0.00 73 999.0
20260507210903 56 270 10.0 0.0 0.00 0.00 0.00 74 999.0
20260507205902 57 260 9.0 24.0 0.00 0.00 0.00 72 999.0
20260507204901 57 260 9.0 24.0 0.00 0.00 0.00 72 999.0
20260507203859 58 260 9.0 24.0 0.00 0.00 0.00 71 999.0
20260507202858 58 260 9.0 24.0 0.00 0.00 0.00 70 1001.0
20260507201858 58 260 9.0 24.0 0.00 0.00 0.00 70 1001.0
20260507200856 58 260 9.0 24.0 0.00 0.00 0.00 70 1001.0
20260507195855 58 260 10.0 26.0 0.00 0.00 0.00 70 1001.0
20260507194854 58 260 10.0 26.0 0.00 0.00 0.00 70 1001.0
20260507193853 59 260 10.0 26.0 0.00 0.00 0.00 70 1001.0
20260507192852 59 260 10.0 26.0 0.00 0.00 0.00 70 998.0
20260507191852 59 260 10.0 26.0 0.00 0.00 0.00 70 998.0
20260507190851 59 260 10.0 26.0 0.00 0.00 0.00 70 998.0
20260507185850 59 280 8.0 0.0 0.00 0.00 0.00 72 998.0
20260507184849 59 280 8.0 0.0 0.00 0.00 0.00 72 998.0
20260507183848 59 280 8.0 0.0 0.00 0.00 0.00 73 998.0
20260507182847 59 280 8.0 0.0 0.00 0.00 0.00 73 1001.0
20260507181846 59 280 8.0 0.0 0.00 0.00 0.00 73 1001.0
20260507180845 58 280 8.0 0.0 0.00 0.00 0.00 74 1002.0
20260507175844 58 0 5.0 0.0 0.00 0.00 0.00 74 1002.0
20260507174843 58 0 5.0 0.0 0.00 0.00 0.00 74 1002.0
20260507173842 58 0 5.0 0.0 0.00 0.00 0.00 74 1002.0
20260507172841 58 0 5.0 0.0 0.00 0.00 0.00 74 1003.0
20260507171840 58 0 5.0 0.0 0.00 0.00 0.00 74 1003.0
20260507170839 58 0 5.0 0.0 0.00 0.00 0.00 74 1003.0
20260507165838 59 250 5.0 0.0 0.00 0.00 0.00 75 1003.0
20260507164837 59 250 5.0 0.0 0.00 0.00 0.00 76 1003.0
20260507163834 59 250 5.0 0.0 0.00 0.00 0.00 77 1003.0
20260507162834 59 250 5.0 0.0 0.00 0.00 0.00 77 1002.0
20260507161833 59 250 5.0 0.0 0.00 0.00 0.00 78 1002.0
20260507160832 59 250 5.0 0.0 0.00 0.00 0.00 79 1002.0
20260507155831 60 260 5.0 0.0 0.00 0.00 0.00 80 1002.0
20260507154830 60 260 5.0 0.0 0.00 0.00 0.00 81 1002.0
20260507153829 60 260 5.0 0.0 0.00 0.00 0.00 81 1002.0
20260507152828 60 260 5.0 0.0 0.00 0.00 0.00 81 1002.0
20260507151827 62 260 5.0 0.0 0.00 0.00 0.00 81 1002.0
20260507150826 62 260 5.0 0.0 0.00 0.00 0.00 82 1002.0
20260507145825 62 220 4.0 0.0 0.00 0.00 0.00 83 1002.0
20260507144824 62 220 4.0 0.0 0.00 0.00 0.00 84 1002.0
20260507143823 62 220 4.0 0.0 0.00 0.00 0.00 84 1002.0
20260507142823 62 220 4.0 0.0 0.00 0.00 0.00 84 1001.0
20260507141821 62 220 4.0 0.0 0.00 0.00 0.00 84 1001.0
20260507140820 62 220 4.0 0.0 0.00 0.00 0.00 84 1001.0
20260507135819 62 260 4.0 0.0 0.00 0.00 0.00 82 1001.0